TimeMST,TemperatureF,Dew PointF,Humidity,Sea Level PressureIn,VisibilityMPH,Wind Direction,Wind SpeedMPH,Gust SpeedMPH,PrecipitationIn,Events,Conditions,WindDirDegrees,DateUTC
12:15 AM,32.0,15.8,51,30.44,10.0,WNW,4.6,-,N/A,,Clear,300,2012-11-24 07:15:00
12:35 AM,32.0,15.8,51,30.43,10.0,West,6.9,-,N/A,,Clear,280,2012-11-24 07:35:00
12:55 AM,32.0,15.8,51,30.43,10.0,West,6.9,-,N/A,,Clear,280,2012-11-24 07:55:00
1:35 AM,32.0,17.6,55,30.42,10.0,West,11.5,-,N/A,,Clear,270,2012-11-24 08:35:00
1:55 AM,32.0,15.8,51,30.41,10.0,West,10.4,21.9,N/A,,Clear,270,2012-11-24 08:55:00
2:15 AM,33.8,15.8,48,30.41,10.0,West,10.4,-,N/A,,Clear,280,2012-11-24 09:15:00
2:35 AM,32.0,15.8,51,30.41,10.0,West,11.5,-,N/A,,Clear,270,2012-11-24 09:35:00
2:55 AM,32.0,15.8,51,30.41,10.0,West,9.2,-,N/A,,Clear,270,2012-11-24 09:55:00
3:15 AM,32.0,15.8,51,30.40,10.0,West,9.2,-,N/A,,Clear,280,2012-11-24 10:15:00
3:35 AM,32.0,15.8,51,30.40,10.0,West,10.4,-,N/A,,Clear,280,2012-11-24 10:35:00
3:55 AM,32.0,15.8,51,30.39,10.0,West,8.1,-,N/A,,Clear,280,2012-11-24 10:55:00
4:15 AM,32.0,15.8,51,30.39,10.0,West,6.9,-,N/A,,Clear,280,2012-11-24 11:15:00
4:35 AM,32.0,15.8,51,30.40,10.0,West,5.8,-,N/A,,Clear,270,2012-11-24 11:35:00
4:55 AM,32.0,15.8,51,30.39,10.0,West,8.1,-,N/A,,Clear,270,2012-11-24 11:55:00
5:15 AM,32.0,15.8,51,30.38,10.0,West,8.1,-,N/A,,Clear,270,2012-11-24 12:15:00
5:35 AM,32.0,15.8,51,30.38,10.0,WNW,9.2,-,N/A,,Clear,290,2012-11-24 12:35:00
5:55 AM,32.0,15.8,51,30.37,10.0,WNW,8.1,-,N/A,,Clear,290,2012-11-24 12:55:00
6:15 AM,32.0,15.8,51,30.38,10.0,NW,5.8,-,N/A,,Clear,310,2012-11-24 13:15:00
6:35 AM,32.0,15.8,51,30.38,10.0,NW,5.8,-,N/A,,Clear,320,2012-11-24 13:35:00
6:55 AM,32.0,15.8,51,30.38,10.0,West,6.9,-,N/A,,Clear,280,2012-11-24 13:55:00
7:15 AM,32.0,15.8,51,30.38,10.0,WNW,10.4,-,N/A,,Clear,290,2012-11-24 14:15:00
7:35 AM,35.6,15.8,44,30.38,10.0,WNW,3.5,-,N/A,,Clear,290,2012-11-24 14:35:00
7:55 AM,37.4,15.8,41,30.38,10.0,NW,4.6,-,N/A,,Clear,310,2012-11-24 14:55:00
8:15 AM,39.2,15.8,39,30.38,10.0,NNW,5.8,-,N/A,,Clear,330,2012-11-24 15:15:00
8:35 AM,41.0,17.6,39,30.37,10.0,NW,6.9,-,N/A,,Clear,320,2012-11-24 15:35:00
8:55 AM,44.6,17.6,34,30.37,10.0,North,4.6,-,N/A,,Clear,10,2012-11-24 15:55:00
9:15 AM,44.6,17.6,34,30.37,10.0,NNE,4.6,-,N/A,,Clear,30,2012-11-24 16:15:00
9:35 AM,46.4,17.6,32,30.37,10.0,North,4.6,-,N/A,,Clear,360,2012-11-24 16:35:00
9:55 AM,50.0,17.6,28,30.36,10.0,NE,5.8,-,N/A,,Clear,40,2012-11-24 16:55:00
10:15 AM,51.8,19.4,28,30.36,10.0,NNW,3.5,-,N/A,,Clear,330,2012-11-24 17:15:00
10:35 AM,55.4,19.4,25,30.35,10.0,North,4.6,-,N/A,,Clear,350,2012-11-24 17:35:00
10:55 AM,57.2,19.4,23,30.33,10.0,NW,10.4,-,N/A,,Clear,320,2012-11-24 17:55:00
11:15 AM,57.2,19.4,23,30.32,10.0,North,9.2,-,N/A,,Clear,360,2012-11-24 18:15:00
11:35 AM,57.2,19.4,23,30.31,10.0,North,12.7,18.4,N/A,,Clear,350,2012-11-24 18:35:00
11:55 AM,57.2,19.4,23,30.30,10.0,NNW,9.2,18.4,N/A,,Clear,330,2012-11-24 18:55:00
12:15 PM,57.2,19.4,23,30.29,10.0,NW,13.8,21.9,N/A,,Clear,320,2012-11-24 19:15:00
12:35 PM,55.4,19.4,25,30.28,10.0,NW,15.0,23.0,N/A,,Clear,320,2012-11-24 19:35:00
12:55 PM,55.4,19.4,25,30.27,10.0,NNW,15.0,20.7,N/A,,Clear,330,2012-11-24 19:55:00
1:15 PM,57.2,19.4,23,30.26,10.0,NNW,10.4,19.6,N/A,,Clear,330,2012-11-24 20:15:00
1:35 PM,57.2,19.4,23,30.25,10.0,NNW,11.5,18.4,N/A,,Clear,330,2012-11-24 20:35:00
1:55 PM,59.0,19.4,22,30.24,10.0,NNW,10.4,19.6,N/A,,Clear,330,2012-11-24 20:55:00
2:15 PM,57.2,19.4,23,30.24,10.0,NW,6.9,19.6,N/A,,Clear,320,2012-11-24 21:15:00
2:35 PM,57.2,19.4,23,30.23,10.0,North,12.7,19.6,N/A,,Clear,350,2012-11-24 21:35:00
2:55 PM,57.2,17.6,21,30.22,10.0,NW,15.0,27.6,N/A,,Clear,320,2012-11-24 21:55:00
3:35 PM,57.2,15.8,20,30.22,10.0,NW,18.4,25.3,N/A,,Clear,310,2012-11-24 22:35:00
3:55 PM,55.4,17.6,23,30.22,10.0,NW,16.1,24.2,N/A,,Clear,310,2012-11-24 22:55:00
4:15 PM,55.4,15.8,21,30.22,10.0,NW,15.0,19.6,N/A,,Clear,310,2012-11-24 23:15:00
4:35 PM,55.4,17.6,23,30.22,10.0,NW,11.5,16.1,N/A,,Clear,310,2012-11-24 23:35:00
4:55 PM,51.8,15.8,24,30.21,10.0,West,10.4,-,N/A,,Clear,280,2012-11-24 23:55:00
5:15 PM,50.0,15.8,26,30.21,10.0,West,6.9,-,N/A,,Clear,280,2012-11-25 00:15:00
5:35 PM,50.0,17.6,28,30.21,10.0,NW,3.5,-,N/A,,Clear,310,2012-11-25 00:35:00
5:55 PM,48.2,17.6,30,30.20,10.0,NW,3.5,-,N/A,,Clear,320,2012-11-25 00:55:00
6:15 PM,46.4,17.6,32,30.20,10.0,Calm,Calm,-,N/A,,Clear,0,2012-11-25 01:15:00
6:35 PM,46.4,17.6,32,30.20,10.0,NNW,3.5,-,N/A,,Clear,340,2012-11-25 01:35:00
6:55 PM,42.8,17.6,36,30.20,10.0,Calm,Calm,-,N/A,,Clear,0,2012-11-25 01:55:00
7:15 PM,44.6,17.6,34,30.20,10.0,NW,3.5,-,N/A,,Clear,320,2012-11-25 02:15:00
7:35 PM,42.8,17.6,36,30.20,10.0,West,4.6,-,N/A,,Clear,280,2012-11-25 02:35:00
7:55 PM,41.0,17.6,39,30.20,10.0,NW,5.8,-,N/A,,Clear,320,2012-11-25 02:55:00
8:15 PM,41.0,17.6,39,30.19,10.0,WNW,8.1,-,N/A,,Clear,300,2012-11-25 03:15:00
8:35 PM,41.0,17.6,39,30.19,10.0,NW,6.9,-,N/A,,Clear,310,2012-11-25 03:35:00
8:55 PM,39.2,17.6,42,30.19,10.0,NNW,5.8,-,N/A,,Clear,330,2012-11-25 03:55:00
9:15 PM,37.4,17.6,45,30.19,10.0,Calm,Calm,-,N/A,,Clear,0,2012-11-25 04:15:00
9:35 PM,37.4,17.6,45,30.18,10.0,WNW,5.8,-,N/A,,Clear,290,2012-11-25 04:35:00
9:55 PM,39.2,17.6,42,30.18,10.0,West,11.5,-,N/A,,Clear,270,2012-11-25 04:55:00
10:15 PM,39.2,17.6,42,30.18,10.0,West,10.4,-,N/A,,Clear,260,2012-11-25 05:15:00
10:35 PM,37.4,17.6,45,30.18,10.0,West,9.2,-,N/A,,Clear,280,2012-11-25 05:35:00
10:55 PM,37.4,17.6,45,30.17,10.0,West,9.2,-,N/A,,Clear,260,2012-11-25 05:55:00
11:15 PM,37.4,17.6,45,30.17,10.0,NNE,5.8,-,N/A,,Clear,30,2012-11-25 06:15:00
11:35 PM,39.2,17.6,42,30.16,10.0,NW,3.5,-,N/A,,Clear,320,2012-11-25 06:35:00
11:55 PM,39.2,17.6,42,30.16,10.0,NNE,3.5,-,N/A,,Clear,20,2012-11-25 06:55:00